East London, South Africa

2:06 PM SAST on September 22, 2017 (GMT +0200)
East London

Weather History for FAEL - August, 2013

Change the Weather History Date:

Wednesday, August 7, 2013

  Actual Average Record
Temperature  
Mean Temperature 58 °F -  
Max Temperature 62 °F 67 °F 93 °F (2005)
Min Temperature 55 °F 51 °F 44 °F (2000)
Degree Days  
Heating Degree Days 6    
Growing Degree Days 8 (Base 50)    
Moisture  
Dew Point 53 °F    
Average Humidity 78    
Maximum Humidity 88    
Minimum Humidity 67    
Precipitation  
Precipitation 0.00 in 0.10 in - ()
Sea Level Pressure  
Sea Level Pressure 29.85 in    
Wind  
Wind Speed 8 mph ()    
Max Wind Speed 20 mph    
Max Gust Speed -    
Visibility 6.9 miles    
Events      
Averages and records for this station are not official NWS values.
T = Trace of Precipitation, MM = Missing Value Source: Averaged Metar Reports

Daily Weather History Graph

Daily Weather History Graph

Search for Another Location

Airport or City:

Trip Planner

Search our weather history database for the weather conditions in past years. The results will help you decide how hot, cold, wet, or windy it might be!

Date:

Astronomy

Aug. 07, 2013 Rise Set
Actual Time 6:54 AM SAST 5:34 PM SAST
Civil Twilight 6:28 AM SAST 6:00 PM SAST
Nautical Twilight 5:59 AM SAST 6:30 PM SAST
Astronomical Twilight 5:29 AM SAST 6:59 PM SAST
Moon 6:49 AM SAST (8/7) 6:17 PM SAST (8/7)
Length of Visible Light 11h 32m
Length of Day
10h 40m
New Moon, 0% of the Moon is Illuminated
Aug 7
New Moon
Aug 14
First Quarter
Aug 21
Full
Aug 28
Last Quarter
Sep 5
New

Hourly Weather History & Observations

Time (SAST) Temp. Dew Point Humidity Pressure Visibility Wind Dir Wind Speed Gust Speed Precip Events Conditions
2:00 AM 58 °F 53 °F 78% 29.90 in 6 mi West 9.2 mph - -  
5:00 AM 57.2 °F 51.8 °F 82% 29.86 in 6.2 mi West 6.9 mph - N/A   Mostly Cloudy
6:00 AM 57.2 °F 51.8 °F 82% 29.83 in - North 4.6 mph - N/A   Clear
7:00 AM 55.4 °F 51.8 °F 88% 29.86 in - West 5.8 mph - N/A   Clear
8:00 AM 56 °F 51 °F 78% 29.87 in 6 mi NNW 3.5 mph - -   Mostly Cloudy
8:00 AM 55.4 °F 51.8 °F 88% 29.86 in - NNW 3.5 mph - N/A   Clear
9:00 AM 59.0 °F 51.8 °F 77% 29.86 in - Calm Calm - N/A   Clear
10:00 AM 59.0 °F 50.0 °F 72% 29.86 in - SSW 10.4 mph - N/A   Clear
11:00 AM 62.6 °F 51.8 °F 68% 29.86 in 6.2 mi SW 13.8 mph - N/A   Partly Cloudy
12:00 PM 62.6 °F 53.6 °F 72% 29.86 in 6.2 mi SSW 16.1 mph - N/A   Partly Cloudy
1:00 PM 62.6 °F 53.6 °F 72% 29.83 in 6.2 mi SSW 19.6 mph - N/A   Scattered Clouds
2:00 PM 62 °F 54 °F 67% 29.83 in 19 mi SSW 16.1 mph - -   Mostly Cloudy
2:00 PM 62.6 °F 53.6 °F 72% 29.83 in 6.2 mi SSW 16.1 mph - N/A   Mostly Cloudy
3:00 PM 60.8 °F 53.6 °F 77% 29.83 in 6.2 mi SSW 15.0 mph - N/A   Mostly Cloudy
3:10 PM 60.8 °F 53.6 °F 77% 29.80 in 6.2 mi SSW 15.0 mph - N/A   Mostly Cloudy
4:00 PM 60.8 °F 53.6 °F 77% 29.83 in 6.2 mi SSW 13.8 mph - N/A   Mostly Cloudy
5:00 PM 60.8 °F 53.6 °F 77% 29.83 in 6.2 mi SSW 12.7 mph - N/A   Mostly Cloudy
5:12 PM 59.0 °F 53.6 °F 82% 29.83 in 6.2 mi SW 10.4 mph - N/A   Mostly Cloudy
5:35 PM 59.0 °F 53.6 °F 82% 29.86 in 6.2 mi SW 8.1 mph - N/A   Mostly Cloudy
6:00 PM 59.0 °F 53.6 °F 82% 29.86 in 6.2 mi WSW 9.2 mph - N/A   Mostly Cloudy
6:07 PM 57.2 °F 51.8 °F 82% 29.86 in 6.2 mi WSW 6.9 mph - N/A   Scattered Clouds
7:00 PM 57.2 °F 51.8 °F 82% 29.89 in 6.2 mi West 8.1 mph - N/A   Partly Cloudy
8:00 PM 55.4 °F 51.8 °F 88% 29.89 in 6.2 mi NW 3.5 mph - N/A   Partly Cloudy